(323798) = 2005 QH151

Discovered at Kitt Peak on 2005-08-30 by Spacewatch.

Orbit

Orbit type: Main Belt

Note: WebGL enabled browser required.

epoch2024-03-31.0
epoch JD2460400.5
perihelion date2022-03-14.40827
perihelion JD2459652.90827
argument of perihelion (°)320.41247
ascending node (°)13.85917
inclination (°)4.29699
eccentricity0.1904045
perihelion distance (AU)2.0976927
Tisserand w.r.t. Jupiter3.4
ΔV w.r.t. Earth (km/sec)9.2
semimajor axis (AU)2.5910379
mean anomaly (°)176.66792
mean daily motion (°/day)0.23631600
aphelion distance (AU)3.084
period (years)4.17
P-vector [x]0.90043323
P-vector [y]-0.37769510
P-vector [z]-0.21579254
Q-vector [x]0.43462385
Q-vector [y]0.80162686
Q-vector [z]0.41048324
absolute magnitude17.36
phase slope0.15
uncertainty0
referenceMPEC 2024-E179
observations used153
oppositions13
arc length (days)8185
first opposition used2001
last opposition used2024
residual rms (arc-secs)0.81
perturbers coarse indicatorM-v
perturbers precise indicator003Ek
first observation date used2001-10-13.0
last observation date used2024-03-11.0
computer nameMPCLINUX
JD of orbit computation2456523.312834
perihelion JD uncertainty (days)1.2247E-04
argument of perihelion uncertainty (°)1.0852E-04
ascending node uncertainty (°)1.0052E-04
inclination uncertainty (°)7.9592E-06
eccentricity uncertainty 2.6256E-07
perihelion distance uncertainty (AU)7.3360E-07
Minimum Orbit Intersection Distances (in AU)
for orbit epoch: 2460200.5, reference: E2024-CE5
Mercury1.69249
Venus1.36912
Earth1.08869
Mars0.71593
Jupiter2.28424
Saturn6.14423
Uranus15.3696
Neptune27.2953

Observations

156 total observations over interval: 2001 10 13.32289 – 2024 03 11.344283
These data are available for download (format description).

